www.pogodaiklimat.ru

Погода и климат >> Архив погоды >> Сирия >> Латакия


ПОГОДА в Латакии

  • Прогноз погоды в Латакии
  • Монитор погоды в Латакии

АРХИВ ПОГОДЫ в Латакии

Время (UTC), дата Ветер
(напр.,м/с)
 
Видим.   Явления Облачность Т
(С)
Тd
(С)
f
(%)
Тe
(С)
Тes
(С)
Комфортность P
(гПа)
Po
(гПа)
Тmin
(С)
Tmax
(С)
R
(мм)
R24
(мм)
S
(см)
09 9.06 штиль 0 15 км 3/0
[Ci fib]
+28.3 +20.5 63 +35 +62 опасность
солнечного
удара
1009.1 1008.3
12 9.06 Ю 1 15 км 3/0
[Ci fib]
+28.2 0.0 16 +26 +43 жарко 1007.7 1006.9
15 9.06 Ю 1 15 км 6/3 900 м
[Cu med, cong Ci sp]
+26.6 +21.2 72 +34 +36 очень
душно
1007.1 1006.3
18 9.06 Ю 2 15 км 8/8 900 м
[Cu Sc]
+25.2 0.0 19 +24 +24 комфорт 1006.8 1006.0 +28.6
21 9.06 ЮВ 3 15 км 8/8 900 м
[Cu Sc]
+24.8 +20.9 79 +31 +31 очень
душно
1006.8 1006.0
00 10.06 ЮВ 2 15 км 6/6 960 м
[Sc diur, vesp]
+24.2 0.0 20 +23 +23 комфорт 1006.6 1005.8
06 10.06 ЮВ 1 15 км 3/3 600 м
[]
+26.8 +16.1 52 +30 +38 душно 1009.3 1008.5 +20.0
12 10.06 ЮВ 3 15 км 3/3 900 м
[Sc diur, vesp]
+27.8 0.0 16 +25 +35 комфорт 1007.4 1006.6
15 10.06 ЮВ 4 15 км ясно +26.0 +20.7 73 +33 +34 очень
душно
1007.1 1006.3
18 10.06 ЮВ 2 15 км ясно +24.2 0.0 20 +23 +23 комфорт 1007.1 1006.3 +27.2
21 10.06 штиль 0 15 км ясно +23.4 +20.3 83 +31 +31 очень
душно
1007.5 1006.7
00 11.06 штиль 0 15 км ясно +21.8 0.0 23 +21 +21 комфорт 1007.3 1006.5
03 11.06 В 1 15 км 4/4 900 м
[Sc diur, vesp]
+20.1 +16.8 81 +24 +24 комфорт 1007.5 1006.7
06 11.06 штиль 0 15 км 4/4 900 м
[Cu med, cong]
+25.2 0.0 19 +24 +32 комфорт 1009.5 1008.7 +19.6
09 11.06 Ю 1 15 км 4/4 900 м
[Cu med, cong]
+28.0 +20.5 64 +35 +49 очень
душно
1010.2 1009.4
12 11.06 ЮВ 1 15 км 5/5 900 м
[Cu med, cong]
+27.6 0.0 17 +25 +35 комфорт 1009.9 1009.1
15 11.06 штиль 0 15 км 5/5 900 м
[Cu med, cong]
+26.6 +20.6 70 +33 +35 очень
душно
1009.6 1008.8
18 11.06 штиль 0 16 км 4/4 900 м
[Cu med, cong]
+24.6 0.0 20 +23 +23 комфорт 1009.9 1009.1 +29.0
21 11.06 штиль 0 15 км 4/4 900 м
[Cu med, cong]
+23.4 +20.7 85 +31 +31 очень
душно
1009.9 1009.1
00 12.06 штиль 0 15 км ясно +22.0 0.0 23 +21 +21 комфорт 1009.2 1008.4
03 12.06 штиль 0 15 км ясно +20.6 +17.6 83 +24 +24 комфорт 1009.1 1008.3
06 12.06 штиль 0 15 км ясно +22.2 0.0 23 +22 +35 комфорт 1010.1 1009.3 +20.4
09 12.06 ЮВ 1 15 км ясно +27.2 +20.2 66 +34 +58 опасность
солнечного
удара
1010.7 1009.9
12 12.06 ЮВ 2 15 км ясно +27.7 0.0 16 +25 +41 комфорт 1010.4 1009.6
15 12.06 ЮВ 1 15 км 5/5 900 м
[Cu hum]
+26.4 +20.3 69 +33 +34 очень
душно
1009.9 1009.1
18 12.06 штиль 0 15 км 4/4 900 м
[Cu med, cong]
+25.0 0.0 19 +23 +23 комфорт 1010.3 1009.5 +28.2
21 12.06 В 1 15 км 4/4 900 м
[Cu med, cong]
+24.5 +20.4 78 +30 +30 очень
душно
1010.5 1009.7
00 13.06 В 1 15 км 5/5 900 м
[Cu med, cong]
+24.0 0.0 20 +23 +23 комфорт 1009.5 1008.7
03 13.06 ЮВ 1 15 км 5/5 900 м
[Cu med, cong]
+24.2 +20.3 79 +30 +30 очень
душно
1009.1 1008.3
06 13.06 ЮВ 1 15 км 3/3 900 м
[Cu med, cong]
+26.0 0.0 18 +24 +32 комфорт 1009.5 1008.7 +23.8
09 13.06 ЮВ 2 15 км 4/4 900 м
[Cu med, cong]
+27.8 +20.9 66 +35 +47 очень
душно
1010.0 1009.2
12 13.06 ЮВ 2 15 км 4/4 900 м
[Cu med, cong]
+27.7 0.0 16 +25 +35 комфорт 1009.1 1008.3
15 13.06 штиль 0 15 км 3/3 900 м
[Cu med, cong]
+27.4 +21.3 69 +35 +37 очень
душно
1008.6 1007.8
18 13.06 ЮВ 1 15 км 3/3 900 м
[Cu med, cong]
+24.8 0.0 20 +23 +23 комфорт 1009.4 1008.6 +28.2
21 13.06 штиль 0 15 км ясно +24.2 +19.3 74 +29 +29 душно 1009.4 1008.6
00 14.06 штиль 0 15 км 4/4 900 м
[Cu med, cong]
+23.2 0.0 21 +22 +22 комфорт 1008.0 1007.2
03 14.06 штиль 0 15 км 4/4 900 м
[Cu med, cong]
+22.6 +18.8 79 +28 +28 душно 1007.6 1006.8
06 14.06 штиль 0 15 км 9/9 960 м
[Cu Sc]
+24.6 0.0 20 +23 +25 комфорт 1009.2 1008.4 +22.6
09 14.06 ЮВ 1 15 км 4/4 900 м
[Cu med, cong]
+27.8 +20.3 64 +34 +49 очень
душно
1008.6 1007.8
12 14.06 ЮВ 1 15 км 3/3 900 м
[]
+27.8 0.0 16 +25 +38 комфорт 1007.9 1007.1
18 14.06 ЮВ 1 15 км 4/4 900 м
[Cu med, cong]
+25.6 0.0 19 +24 +24 комфорт 1007.6 1006.8 +28.4
21 14.06 штиль 0 15 км 4/4 900 м
[Cu med, cong]
+24.7 +20.9 79 +31 +31 очень
душно
1007.6 1006.8
00 15.06 штиль 0 15 км 4/4 900 м
[Cu med, cong]
+23.8 0.0 21 +23 +23 комфорт 1006.4 1005.6
03 15.06 штиль 0 15 км 4/4 900 м
[Cu med, cong]
+22.8 +20.4 86 +30 +30 очень
душно
1006.1 1005.3
06 15.06 штиль 0 15 км 3/3 900 м
[Cu med, cong]
+25.9 +21.2 75 +33 +42 очень
душно
1006.9 1006.1 +25.9
09 15.06 Ю 2 15 км 1/1 900 м
[Cu hum]
+28.2 +21.2 66 +36 +54 опасность
солнечного
удара
1007.1 1006.3
12 15.06 Ю 2 10 км 3/3 900 м
[Cu med, cong]
+29.2 +21.5 63 +37 +48 очень
душно
1006.7 1005.9
15 15.06 штиль 0 15 км 3/3 900 м
[Cu med, cong]
+27.6 +21.0 67 +35 +37 очень
душно
1006.7 1005.9
18 15.06 штиль 0 15 км 4/4 900 м
[Cu med, cong]
+25.4 +21.1 77 +32 +32 очень
душно
1006.9 1006.1 +29.8
21 15.06 В 1 15 км 3/3 900 м
[Cu hum]
+24.9 +21.0 79 +31 +31 очень
душно
1006.9 1006.1
00 16.06 штиль 0 15 км 3/3 900 м
[Cu hum]
+23.5 +20.6 84 +29 +29 душно 1006.3 1005.5
06 16.06 штиль 0 15 км 5/5 900 м
[Cu med, cong]
+26.0 0.0 18 +24 +31 комфорт 1006.9 1006.1 +22.2

 

Местоположение метеостанции Латакия (Сирия): широта 35.53 долгота 35.77 высота над уровнем моря 7 м.

В архиве по умолчанию представлена погода в Латакии за последнюю неделю. Архивные данные за месяц целиком и за предыдущие месяцы, начиная с января 2011 года, Вы можете получить, выбрав интересующий диапазон дат из раскрывающегося списка и нажав кнопку "Ввод!".


*Определитесь, кто Вы:
робот инопланетянин человек

Внимание! Время в таблицах - всемирное. Для получения местного времени необходимо прибавить поправку, которая равна 2 ч.

Смотрите также архив погоды в соседних городах и на ближайших метеорологических станциях:

Погода в Аэропорту Басиля Эль-Асада (Сирия) (20 км)
Погода в Сафире (Сирия) (85 км)
Погода в Хаме (Сирия) (100 км)
Погода в Триполи (Ливан) (121 км)
Погода в Искендеруне (Турция) (122 км)
Погода в Ризокарпасо (Кипр) (126 км)
Погода в Алеппо (Сирия) (148 км)
Погода в Гиалусе (Кипр) (158 км)
Погода в Инджирлике (Турция) (166 км)
Погода в Адане (Турция) (167 км)

Пояснения к столбцам:

Ветер - указаны скорость ветра в м/с - средняя за 10 мин, порывы в срок и между сроками (в фигурных скобках) и направление, откуда дует ветер: С - северный, СВ - северо-восточный, В - восточный, ЮВ - юго-восточный, Ю - южный, ЮЗ - юго-западный, З - западный, СЗ - северо-западный.
Видимость - горизонтальная дальность видимости в метрах или километрах. При видимости от 1 до 10 км при отсутствии осадков обычно наблюдается дымка, при ухудшении видимости до 1 км и менее - туман. В сухую погоду видимость может ухудшаться дымом, пылью или мглою.
Явления - указаны атмосферные явления, наблюдавшиеся в срок или в последний час перед сроком; фигурными скобками обозначены явления, наблюдавшиеся между сроками (за 1-3 часа до срока); квадратными скобками обозначены град или гололедные отложения с указанием их диаметра в мм.
Облачность - указаны через наклонную черту общая и нижняя облачность в баллах и высота нижней границы облаков в метрах; квадратными скобками обозначены формы облаков: Ci - перистые, Cs - перисто-слоистые, Cc - перисто-кучевые, Ac - высококучевые, As - высокослоистые, Sc - слоисто-кучевые, Ns - слоисто-дождевые, Cu - кучевые, Cb - кучево-дождевые. Подробнее классификацию облаков см. в Атласе облаков (PDF).
T - Температура воздуха - температура, измеренная на высоте 2 м над землей.
Td - Температура точки росы - температура, при понижении до которой содержащийся в воздухе водяной пар достигнет насыщения.
f - Относительная влажность воздуха - влажноcть воздуха, измеренная на высоте 2 м над землей.
Te - Эффективная температура - температура, которую ощущает одетый по сезону человек в тени. Характеристика душности погоды. При расчете учитывается влияние влажности воздуха и скорости ветра на теплоощущения человека.
Tes - Эффективная температура на солнце - температура, которую ощущает человек, с поправкой на солнечный нагрев. Характеристика знойности погоды. Зависит от высоты солнца над горизонтом, облачности и скорости ветра. Ночью, в пасмурную погоду, а также при ветре 12 м/с и более поправка равна нулю.
P - Атмосферное давление - приведенное к уровню моря атмосферное давление.
Po - Атмосферное давление - измеренное на уровне метеостанции атмосферное давление.
Tmin - Минимальная температура - минимум температуры воздуха на высоте 2 м над землей.
Tmax - Максимальная температура - максимум температуры воздуха на высоте 2 м над землей.
R - Количество осадков - Количество выпавших осадков за период времени, мм. При наведении курсора мыши на число - период времени, за который выпало указанное количество осадков.
R24 - Количество осадков - Количество выпавших осадков за 24 часа, мм.
S - Снежный покров - Высота снежного покрова, см. При наведении курсора мыши на число - состояние снежного покрова и степень покрытия местности в баллах.